DateTimeUTC,F1_A11,F1_S11,BsB_S11,BsG_S11,BsR_S11,BbsB_S11,BbsG_S11,BbsR_S11,BaB_A11,BaG_A11,BaR_A11,Tu_S11,T_S11,Uu_S11,U_S11,P_S11,T1_A11
2021-01-19T15:00:00Z,00000200,21000000,,,,,,,-000.12,-000.10,-000.30,15.6,23.3,,00.0,0648.0,30.7
2021-01-19T15:01:00Z,00000200,21000000,,,,,,,-000.25,-000.38,-000.11,15.5,23.2,,00.0,0648.0,30.7
2021-01-19T15:02:00Z,00000200,21000000,,,,,,,0000.29,-000.23,-000.01,15.5,23.2,,00.0,0648.0,30.7
2021-01-19T15:03:00Z,00000200,61000000,,,,,,,-000.31,0000.27,-000.10,15.5,23.2,,00.0,0648.0,30.7
2021-01-19T15:04:00Z,00000200,41000000,0000.58,0000.08,0000.14,0000.45,0000.29,0000.35,0000.23,0000.29,0000.68,15.5,22.8,,00.0,0648.8,30.6
2021-01-19T15:05:00Z,00000200,01000000,0000.46,-000.18,-000.13,0000.07,0000.10,-000.13,0000.49,0000.37,0000.06,15.5,22.7,,00.0,0648.9,30.7
2021-01-19T15:06:00Z,00000200,01000000,0000.56,-000.19,0000.11,0000.28,0000.19,0000.20,-000.05,-000.15,-000.07,15.6,22.7,,00.0,0648.9,30.7
2021-01-19T15:07:00Z,00000200,01000000,0000.13,0000.22,-000.06,0000.15,0000.23,0000.17,-000.06,0000.08,0000.11,15.6,22.7,,00.0,0648.9,30.7
2021-01-19T15:08:00Z,00000200,01000000,0000.40,-000.22,0000.04,0000.07,0000.10,0000.04,0000.12,0000.66,0000.02,15.7,22.7,,00.0,0648.9,30.7
2021-01-19T15:09:00Z,00000200,01010000,0000.34,-000.17,-000.16,0000.34,-000.02,0000.13,0000.53,-000.30,0000.20,15.8,22.7,,00.0,0648.9,30.7
2021-01-19T15:10:00Z,00000200,01000000,0000.46,-000.15,-000.13,-000.08,0000.20,0000.01,-000.10,0000.02,-000.01,15.8,22.7,,00.0,0648.9,30.8
2021-01-19T15:11:00Z,00000200,01000000,0001.04,-000.08,0000.14,0000.33,0000.16,0000.26,0000.10,0000.24,-000.27,15.9,22.7,,00.0,0648.9,30.8
2021-01-19T15:12:00Z,00000200,01000000,0001.34,-000.06,0000.01,0000.43,0000.32,0000.03,-000.11,-000.08,0000.43,15.9,22.7,,00.0,0648.9,30.8
2021-01-19T15:13:00Z,00000200,01000000,0000.74,-000.02,-000.01,-000.36,0000.21,0000.18,0000.13,-000.23,-000.30,15.9,22.8,,00.0,0648.9,30.8
2021-01-19T15:14:00Z,00000200,01000000,-000.01,-000.17,0000.31,-000.07,0000.09,0000.11,-000.30,0000.01,0000.11,16.0,22.8,,00.0,0648.9,30.8
2021-01-19T15:15:00Z,00000200,01000000,0001.06,-000.01,0000.01,0000.17,0000.10,0000.30,0000.20,0000.25,-000.20,15.9,22.8,,00.0,0648.8,30.8
2021-01-19T15:16:00Z,00000200,01000000,0000.33,0000.27,0000.17,0000.29,0000.28,0000.29,-000.33,-000.12,-000.19,15.8,22.7,,00.0,0648.8,30.8
2021-01-19T15:17:00Z,00000200,01000000,0000.18,0000.16,0000.04,0000.06,0000.08,0000.20,0000.16,-000.33,0000.04,15.8,22.7,,00.0,0648.8,30.8
2021-01-19T15:18:00Z,00000200,01000000,0000.32,0000.03,-000.00,0000.20,-000.04,0000.19,0000.47,0000.37,0000.62,15.7,22.6,,00.0,0648.8,30.8
2021-01-19T15:19:00Z,00000200,01000000,0000.58,-000.31,0000.02,0000.60,-000.08,0000.20,0000.06,0000.21,-000.15,15.7,22.6,,00.0,0648.9,30.8
2021-01-19T15:20:00Z,00000200,01000000,0000.28,0000.30,0000.14,0000.05,-000.13,0000.16,-000.14,0000.27,0000.04,15.7,22.6,,00.0,0648.9,30.8
2021-01-19T15:21:00Z,00000200,01000000,0000.39,0000.14,0000.20,0000.48,-000.15,0000.22,0000.25,-000.26,0000.01,15.8,22.7,,00.0,0648.9,30.8
2021-01-19T15:22:00Z,00000200,01000000,0000.40,-000.01,0000.06,0000.33,0000.22,0000.01,0000.00,0000.37,0000.20,15.9,22.7,,00.0,0648.9,30.8
2021-01-19T15:23:00Z,00000200,01000000,0000.73,0000.10,0000.22,0000.30,-000.12,0000.35,0000.03,-000.42,0000.07,15.9,22.7,,00.0,0648.9,30.8
2021-01-19T15:24:00Z,00000200,01000000,0000.35,0000.05,0000.24,0000.70,-000.01,0000.04,0000.02,0000.63,-000.03,16.0,22.7,,00.0,0648.9,30.8
2021-01-19T15:25:00Z,00000200,01000000,0000.17,0000.17,0000.29,0000.25,0000.16,0000.16,0000.48,0000.07,0000.10,16.0,22.7,,00.0,0648.9,30.8
2021-01-19T15:26:00Z,00000200,01000000,-000.21,0000.07,0000.12,0000.41,0000.30,0000.18,-000.55,-000.07,0000.08,16.1,22.8,,00.0,0648.9,30.8
2021-01-19T15:27:00Z,00000200,01000000,0000.83,0000.30,-000.20,0000.36,-000.08,-000.03,0000.30,0000.06,-000.08,16.1,22.8,,00.0,0649.0,30.8
2021-01-19T15:28:00Z,00000200,01000000,-000.07,0000.06,0000.03,-000.16,0000.16,0000.23,-000.07,-000.19,-000.03,16.1,22.8,,00.0,0649.0,30.8
2021-01-19T15:29:00Z,00000200,01000000,0000.43,0000.45,0000.27,0000.05,0000.13,0000.05,0000.36,0000.24,0000.09,16.1,22.8,,00.0,0649.0,30.8
2021-01-19T15:30:00Z,00000200,01000000,0000.56,-000.26,0000.25,-000.14,0000.06,0000.29,-000.47,0000.16,0000.04,16.2,22.8,,00.0,0649.0,30.8
2021-01-19T15:31:00Z,00000200,01000000,0000.26,-000.20,0000.22,0000.06,0000.26,0000.34,0000.24,-000.00,0000.00,16.2,22.8,,00.0,0649.0,30.8
2021-01-19T15:32:00Z,00000200,01000000,0000.40,0000.10,0000.03,0000.71,0000.20,0000.18,0000.31,-000.28,-000.00,16.3,22.8,,00.0,0649.0,30.8
2021-01-19T15:33:00Z,00000200,01000000,0000.74,-000.03,0000.23,0000.33,0000.10,0000.09,-000.28,0000.32,0000.03,16.3,22.9,,00.0,0649.0,30.8
2021-01-19T15:34:00Z,00000200,01000000,-000.32,-000.03,-000.12,0000.62,0000.43,0000.04,0000.16,0000.14,0000.12,16.3,22.9,,00.0,0649.0,30.8
2021-01-19T15:35:00Z,00000200,01000000,0000.99,0000.40,0000.13,0000.21,0000.07,0000.08,0000.17,-000.19,-000.30,16.4,22.9,,00.0,0648.9,30.9
2021-01-19T15:36:00Z,00000200,01000000,0000.26,-000.22,0000.07,-000.05,0000.15,0000.18,-000.21,0000.17,0000.42,16.4,22.9,,00.0,0648.9,30.9
2021-01-19T15:37:00Z,00000200,01000000,0000.47,0000.19,-000.08,0000.21,0000.16,-000.10,0000.36,0000.24,0000.07,16.4,22.9,,00.0,0648.9,30.9
2021-01-19T15:38:00Z,00000200,01000000,0000.64,0000.14,0000.19,0000.17,0000.36,0000.02,0000.12,0000.02,0000.09,16.5,23.0,,00.0,0648.9,30.9
2021-01-19T15:39:00Z,00000200,01000000,0000.75,0000.17,0000.24,-000.28,0000.22,0000.10,-000.04,-000.02,0000.04,16.5,23.0,,00.0,0648.9,30.9
2021-01-19T15:40:00Z,00000200,01000000,0000.64,-000.12,0000.01,0000.46,-000.05,0000.19,0000.01,0000.19,-000.05,16.6,23.0,,00.0,0648.9,30.9
2021-01-19T15:41:00Z,00000200,01000000,0000.34,0000.32,0000.06,-000.08,0000.24,-000.12,0000.28,0000.29,0000.14,16.6,23.1,,00.0,0649.0,30.9
2021-01-19T15:42:00Z,00000200,01000000,0000.50,-000.13,-000.07,-000.09,-000.21,0000.15,0000.32,0000.02,0000.08,16.7,23.1,,00.0,0649.0,30.9
2021-01-19T15:43:00Z,00000200,01000000,0001.10,-000.26,-000.20,0000.21,0000.07,-000.01,-000.07,0000.32,-000.13,16.7,23.2,,00.0,0649.0,30.9
2021-01-19T15:44:00Z,00000200,01000000,0000.48,0000.08,0000.36,-000.10,0000.17,0000.53,0000.06,-000.27,-000.01,16.7,23.2,,00.0,0649.0,30.9
2021-01-19T15:45:00Z,00000200,01000000,0000.69,-000.09,0000.11,0000.08,0000.08,0000.29,-000.41,0000.11,0000.28,16.8,23.2,,00.0,0649.0,30.9
2021-01-19T15:46:00Z,00000200,01000000,0000.18,-000.11,0000.19,0000.48,0000.06,0000.23,0000.31,-000.07,-000.33,16.8,23.3,,00.0,0649.0,30.9
2021-01-19T15:47:00Z,00000200,01000000,0000.28,0000.25,0000.07,0000.17,0000.19,0000.10,-000.25,-000.20,-000.08,16.8,23.3,,00.0,0649.0,30.9
2021-01-19T15:48:00Z,00000200,01000000,0000.02,-000.13,0000.40,0000.20,0000.12,0000.14,-000.54,-000.86,-000.21,16.8,23.2,,00.0,0649.0,30.9
2021-01-19T15:49:00Z,00000200,01000000,0000.74,0000.02,0000.28,0000.14,0000.08,0000.18,0000.59,0000.42,0000.04,16.7,23.2,,00.0,0649.1,30.8
2021-01-19T15:50:00Z,00000200,01000000,0000.26,0000.06,0000.23,-000.04,0000.33,0000.10,-000.33,-000.28,-000.12,16.6,23.2,,00.0,0649.1,30.8
2021-01-19T15:51:00Z,00000200,01000000,0000.74,-000.04,0000.04,-000.32,0000.01,0000.06,-000.05,-000.30,-000.07,16.5,23.1,,00.0,0649.1,30.8
2021-01-19T15:52:00Z,00000200,01000000,0000.95,-000.30,0000.12,0000.22,0000.31,0000.12,-000.06,0000.20,0000.34,16.5,23.1,,00.0,0649.1,30.8
2021-01-19T15:53:00Z,00000200,01000000,-000.12,0000.15,0000.19,0000.47,0000.14,0000.28,-000.03,0000.06,-000.11,16.4,23.1,,00.0,0649.1,30.8
2021-01-19T15:54:00Z,00000200,01000000,-000.00,-000.01,0000.04,-000.08,0000.35,0000.08,0000.21,-000.06,-000.04,16.4,23.1,,00.0,0649.1,30.8
2021-01-19T15:55:00Z,00000200,01000000,0000.68,-000.00,0000.04,0000.51,0000.07,0000.21,-000.01,0000.13,-000.18,16.3,23.0,,00.0,0649.1,30.8
2021-01-19T15:56:00Z,00000200,01000000,0000.78,-000.13,-000.03,0000.33,0000.24,-000.14,0000.18,0000.22,0000.04,16.2,23.0,,00.0,0649.2,30.8
2021-01-19T15:57:00Z,00000200,41000000,,,,,,,0000.11,0000.07,0000.11,16.2,23.0,,00.0,0649.2,30.8
2021-01-19T15:58:00Z,00000200,61000000,,,,,,,-000.31,-000.11,-000.16,15.6,23.1,,00.0,0648.2,30.8
2021-01-19T15:59:00Z,00000200,21000000,,,,,,,-000.17,-000.28,0000.01,15.6,23.2,,00.0,0648.1,30.8
